FW4132 Weather Reports


Display with metric or nautical units.
time (UTC)temp
F
wind
direction
speed
MPH
gust
MPH
rain 1hr
in
rain 24hr
in
rain mn
in
humidity
%
barometer
mb
20260906191508 57 283 2.0 5.0 0.00 0.16 0.00 65 1016.8
20260906191200 57 319 2.0 5.0 0.00 0.16 0.00 67 1018.1
20260906191004 56 319 0.0 5.0 0.00 0.16 0.00 65 1016.9
20260906190654 57 319 3.0 8.0 0.00 0.16 0.00 70 1018.4
20260906190503 56 263 2.0 8.0 0.00 0.16 0.00 66 1017.0
20260906190148 57 288 3.0 8.0 0.00 0.16 0.00 67 1018.5
20260906190013 56 296 1.0 8.0 0.00 0.16 0.00 65 1017.1
20260906185642 57 259 3.0 7.0 0.00 0.16 0.00 67 1018.5
20260906185502 56 277 1.0 7.0 0.00 0.16 0.00 70 1017.1
20260906185136 56 241 4.0 7.0 0.00 0.16 0.00 68 1018.7
20260906185007 56 303 3.0 7.0 0.00 0.16 0.00 68 1017.2
20260906184630 56 311 3.0 7.0 0.00 0.16 0.00 67 1018.7
20260906184531 56 278 4.0 7.0 0.00 0.16 0.00 67 1017.2
20260906184124 56 281 3.0 6.0 0.00 0.16 0.00 69 1018.5
20260906184009 56 280 2.0 6.0 0.00 0.16 0.00 68 1017.2
20260906183618 56 292 3.0 6.0 0.00 0.16 0.00 69 1018.7
20260906183507 56 239 3.0 6.0 0.00 0.16 0.00 67 1017.2
20260906183113 57 282 2.0 7.0 0.00 0.16 0.00 68 1018.5
20260906183022 57 319 2.0 7.0 0.00 0.16 0.00 66 1017.2
20260906182606 58 312 1.0 7.0 0.00 0.16 0.00 65 1018.7
20260906182511 58 286 2.0 7.0 0.00 0.16 0.00 66 1017.2
20260906182100 58 317 1.0 5.0 0.00 0.16 0.00 62 1018.7
20260906182013 58 317 0.0 5.0 0.00 0.16 0.00 60 1017.3
20260906181554 58 317 1.0 7.0 0.00 0.16 0.00 63 1018.7
20260906181507 58 318 1.0 7.0 0.00 0.16 0.00 61 1017.2
20260906181048 58 132 2.0 7.0 0.00 0.16 0.00 59 1018.7
20260906181007 58 144 2.0 7.0 0.00 0.16 0.00 60 1017.2
20260906180542 58 117 1.0 4.0 0.00 0.16 0.00 67 1018.7
20260906180503 57 117 2.0 4.0 0.00 0.16 0.00 67 1017.3
20260906180036 57 273 1.0 4.0 0.00 0.16 0.00 64 1018.7
20260906180008 57 273 0.0 4.0 0.00 0.16 0.00 62 1017.3
20260906175510 57 267 0.0 4.0 0.00 0.16 0.00 64 1017.4
20260906175024 58 350 1.0 6.0 0.00 0.16 0.00 66 1018.8
20260906175009 57 350 0.0 6.0 0.00 0.16 0.00 67 1017.4
20260906174518 58 112 2.0 6.0 0.00 0.16 0.00 64 1018.8
20260906174012 58 112 4.0 9.0 0.00 0.16 0.00 64 1018.8
20260906174007 57 112 2.0 9.0 0.00 0.16 0.00 64 1017.5
20260906173507 57 111 3.0 9.0 0.00 0.16 0.00 65 1017.5
20260906173505 57 108 5.0 9.0 0.00 0.16 0.00 66 1018.8
20260906173024 56 105 4.0 8.0 0.00 0.16 0.00 65 1017.4
20260906172959 57 105 4.0 8.0 0.00 0.16 0.00 65 1018.9
20260906172718 56 100 4.0 8.0 0.00 0.16 0.00 67 1018.8
20260906172504 56 110 5.0 8.0 0.00 0.16 0.00 66 1017.4
20260906172008 55 109 0.0 9.0 0.00 0.16 0.00 71 1017.5
20260906171948 55 108 4.0 9.0 0.00 0.16 0.00 72 1018.9
20260906171525 54 146 4.0 9.0 0.00 0.16 0.00 73 1017.5
20260906171442 54 111 4.0 9.0 0.00 0.16 0.00 75 1018.9
20260906171015 53 111 2.0 7.0 0.00 0.16 0.00 77 1017.5
20260906170653 52 113 2.0 6.0 0.00 0.16 0.00 79 1018.9
20260906170503 52 110 3.0 6.0 0.00 0.16 0.00 79 1017.6
20260906170012 51 138 0.0 3.0 0.00 0.16 0.00 79 1017.6
20260906165919 52 161 1.0 3.0 0.00 0.16 0.00 80 1018.9
20260906165503 51 302 0.0 4.0 0.00 0.16 0.00 82 1017.7
20260906165414 51 302 1.0 4.0 0.00 0.16 0.00 82 1019.0
20260906165003 51 301 0.0 4.0 0.00 0.16 0.00 79 1017.6
20260906164908 52 312 1.0 4.0 0.00 0.16 0.00 79 1019.0
20260906164512 52 322 2.0 3.0 0.00 0.16 0.00 77 1017.7
20260906164402 53 321 1.0 3.0 0.00 0.16 0.00 79 1018.9
20260906164008 53 109 0.0 3.0 0.00 0.16 0.00 79 1017.6
20260906163856 53 109 1.0 3.0 0.00 0.16 0.00 81 1019.0
20260906163507 52 109 0.0 7.0 0.00 0.16 0.00 79 1017.7
20260906163349 53 109 3.0 7.0 0.00 0.16 0.00 80 1019.1
20260906163012 52 105 2.0 7.0 0.00 0.16 0.00 80 1017.7
20260906162844 52 105 4.0 7.0 0.00 0.16 0.00 81 1019.1
20260906162507 51 106 3.0 7.0 0.00 0.16 0.00 81 1017.8
20260906162337 51 107 4.0 7.0 0.00 0.16 0.00 83 1019.1
20260906162004 50 113 4.0 7.0 0.00 0.16 0.00 84 1017.8
20260906161832 50 114 2.0 7.0 0.00 0.16 0.00 87 1019.0
20260906161510 49 115 2.0 6.0 0.00 0.16 0.00 90 1017.7
20260906161326 49 105 0.0 3.0 0.00 0.16 0.00 91 1019.0
20260906161004 48 98 0.0 2.0 0.00 0.16 0.00 95 1017.7
20260906160820 49 92 0.0 2.0 0.00 0.16 0.00 97 1019.0
20260906160502 48 109 0.0 4.0 0.00 0.16 0.00 96 1017.7
20260906160314 48 109 1.0 4.0 0.00 0.16 0.00 97 1019.0
20260906160011 47 109 0.0 4.0 0.00 0.16 0.00 97 1017.7
20260906155814 47 109 3.0 6.0 0.00 0.16 0.00 97 1019.0
20260906155502 46 109 1.0 6.0 0.00 0.16 0.00 97 1017.7
20260906155314 47 114 3.0 6.0 0.00 0.16 0.00 97 1019.1
20260906155003 46 110 3.0 6.0 0.00 0.16 0.00 96 1017.7
20260906154812 47 108 2.0 4.0 0.00 0.16 0.00 97 1019.2
20260906154513 46 115 1.0 4.0 0.00 0.16 0.00 96 1017.9
20260906154313 46 111 1.0 4.0 0.00 0.16 0.00 97 1019.2
20260906154006 45 111 1.0 4.0 0.00 0.16 0.00 96 1017.9
20260906153812 46 121 0.0 0.0 0.00 0.16 0.00 97 1019.3
20260906153532 45 118 0.0 0.0 0.00 0.16 0.00 97 1019.2
20260906153506 45 118 0.0 0.0 0.00 0.16 0.00 96 1017.8
20260906153021 44 119 0.0 0.0 0.00 0.16 0.00 96 1017.9
20260906152812 44 119 0.0 0.0 0.00 0.16 0.00 97 1019.3
20260906152502 43 118 0.0 0.0 0.00 0.16 0.00 96 1017.9
20260906152312 44 119 0.0 0.0 0.00 0.16 0.00 97 1019.2
20260906152006 43 118 0.0 0.0 0.00 0.16 0.00 96 1017.9
20260906151520 42 118 0.0 0.0 0.00 0.16 0.00 96 1017.7
20260906151312 42 118 0.0 0.0 0.00 0.16 0.00 97 1019.2
20260906151011 41 119 0.0 0.0 0.00 0.16 0.00 96 1017.8
20260906150813 41 119 0.0 0.0 0.00 0.16 0.00 96 1019.1
20260906150505 40 118 0.0 0.0 0.00 0.16 0.00 96 1017.8
20260906150312 40 119 0.0 0.0 0.00 0.16 0.00 96 1019.2
20260906150018 40 119 0.0 0.0 0.00 0.16 0.00 96 1017.9
20260906145808 40 119 0.0 0.0 0.00 0.16 0.00 96 1019.2
20260906145516 39 119 0.0 0.0 0.00 0.16 0.00 96 1017.9
20260906145308 40 119 0.0 0.0 0.00 0.16 0.00 96 1019.2
20260906145007 39 119 0.0 0.0 0.00 0.16 0.00 96 1017.9
20260906144809 39 119 0.0 0.0 0.00 0.16 0.00 96 1019.2
20260906144515 39 119 0.0 0.0 0.00 0.16 0.00 96 1017.9
20260906144308 39 119 0.0 0.0 0.00 0.16 0.00 96 1019.2
20260906144002 38 119 0.0 0.0 0.00 0.16 0.00 96 1017.9
20260906143808 39 119 0.0 0.0 0.00 0.16 0.00 96 1019.2
20260906143508 38 119 0.0 0.0 0.00 0.16 0.00 96 1017.9
20260906143308 39 119 0.0 0.0 0.00 0.16 0.00 96 1019.2
20260906143016 38 119 0.0 0.0 0.00 0.16 0.00 96 1018.0
20260906142807 38 119 0.0 0.0 0.00 0.16 0.00 96 1019.2
20260906142508 38 119 0.0 0.0 0.00 0.16 0.00 96 1018.0
20260906142008 37 119 0.0 0.0 0.00 0.16 0.00 96 1017.9
20260906141809 38 119 0.0 0.0 0.00 0.16 0.00 96 1019.1
20260906141518 37 119 0.0 3.0 0.00 0.16 0.00 96 1017.9
20260906141308 37 119 0.0 3.0 0.00 0.16 0.00 96 1019.2
20260906141007 37 119 0.0 3.0 0.00 0.16 0.00 95 1018.0
20260906140808 37 119 0.0 3.0 0.00 0.16 0.00 96 1019.2
20260906140510 36 119 0.0 3.0 0.00 0.16 0.00 95 1018.0
20260906140308 37 119 0.0 1.0 0.00 0.16 0.00 96 1019.2
20260906140041 36 119 0.0 0.0 0.00 0.16 0.00 95 1018.0
20260906135807 36 119 0.0 0.0 0.00 0.16 0.00 96 1019.2
20260906135506 36 119 0.0 0.0 0.00 0.16 0.00 95 1018.0
20260906135308 36 119 0.0 0.0 0.00 0.16 0.00 95 1019.2
20260906135007 36 119 0.0 0.0 0.00 0.16 0.00 95 1018.0
20260906134807 36 119 0.0 0.0 0.00 0.16 0.00 95 1019.2
20260906134525 36 119 0.0 0.0 0.00 0.16 0.00 95 1018.0
20260906134523 36 119 0.0 0.0 0.00 0.16 0.00 95 1019.1
20260906134013 36 119 0.0 0.0 0.00 0.16 0.00 95 1018.0
20260906133806 36 119 0.0 0.0 0.00 0.16 0.00 95 1019.1
20260906133508 36 119 0.0 0.0 0.00 0.16 0.00 95 1018.0
20260906133306 36 119 0.0 0.0 0.00 0.16 0.00 95 1019.1
20260906133027 36 119 0.0 0.0 0.00 0.16 0.00 95 1019.2
20260906133018 36 119 0.0 0.0 0.00 0.16 0.00 95 1018.0
20260906132507 36 119 0.0 0.0 0.00 0.16 0.00 95 1018.0
20260906132307 36 119 0.0 0.0 0.00 0.16 0.00 95 1019.2
20260906132002 36 119 0.0 0.0 0.00 0.16 0.00 95 1018.0
20260906131806 36 119 0.0 0.0 0.00 0.16 0.00 95 1019.1
20260906131517 36 119 0.0 0.0 0.00 0.16 0.00 95 1017.9
20260906131305 37 119 0.0 0.0 0.00 0.16 0.00 96 1019.2
20260906131005 36 119 0.0 2.0 0.00 0.16 0.00 95 1018.0
20260906130804 37 119 0.0 2.0 0.00 0.16 0.00 95 1019.3
20260906130508 36 119 0.0 2.0 0.00 0.16 0.00 95 1018.1
20260906130304 37 119 0.0 3.0 0.00 0.16 0.00 96 1019.3
20260906130013 37 119 0.0 3.0 0.00 0.16 0.00 95 1018.1
20260906125803 37 119 0.0 3.0 0.00 0.16 0.00 96 1019.3
20260906125507 37 119 0.0 3.0 0.00 0.16 0.00 95 1018.1
20260906125306 37 119 0.0 3.0 0.00 0.16 0.00 96 1019.5
20260906125031 37 120 0.0 3.0 0.00 0.16 0.00 96 1019.5
20260906125013 37 120 0.0 2.0 0.00 0.16 0.00 95 1018.2
20260906124531 37 120 0.0 3.0 0.00 0.16 0.00 95 1018.2
20260906124304 37 120 0.0 3.0 0.00 0.16 0.00 96 1019.5
20260906124008 37 121 0.0 4.0 0.00 0.16 0.00 95 1018.1
20260906123803 37 121 0.0 4.0 0.00 0.16 0.00 96 1019.5
20260906123510 37 121 0.0 4.0 0.00 0.16 0.00 95 1018.2
20260906123304 37 119 0.0 4.0 0.00 0.16 0.00 96 1019.5
20260906123038 37 118 0.0 4.0 0.00 0.16 0.00 95 1018.2
20260906122803 37 118 0.0 4.0 0.00 0.16 0.00 96 1019.5
20260906122506 37 118 0.0 4.0 0.00 0.16 0.00 95 1018.3
20260906122257 37 118 1.0 4.0 0.00 0.16 0.00 96 1019.6
20260906122014 37 125 0.0 4.0 0.00 0.16 0.00 95 1018.2
20260906121750 37 125 1.0 4.0 0.00 0.16 0.00 96 1019.6
20260906121528 36 126 1.0 4.0 0.00 0.16 0.00 95 1018.2
20260906121245 37 115 1.0 3.0 0.00 0.16 0.00 96 1019.5
20260906121003 36 110 0.0 3.0 0.00 0.16 0.00 95 1018.3
20260906121001 36 105 0.0 2.0 0.00 0.16 0.00 96 1019.5
20260906120507 36 105 0.0 2.0 0.00 0.16 0.00 95 1018.3
20260906120233 36 105 0.0 1.0 0.00 0.16 0.00 95 1019.5
20260906120023 36 105 0.0 1.0 0.00 0.16 0.00 95 1018.2
20260906115727 36 105 0.0 1.0 0.00 0.16 0.00 95 1019.5
20260906115507 36 105 0.0 1.0 0.00 0.16 0.00 95 1018.3
20260906115221 36 105 0.0 3.0 0.00 0.16 0.00 95 1019.6
20260906115014 36 105 0.0 3.0 0.00 0.16 0.00 95 1018.3
20260906114936 36 105 1.0 3.0 0.00 0.16 0.00 95 1019.7
20260906114526 36 105 0.0 3.0 0.00 0.16 0.00 95 1018.4
20260906114209 36 108 0.0 3.0 0.00 0.16 0.00 95 1019.7
20260906114014 35 111 0.0 3.0 0.00 0.16 0.00 95 1018.4
20260906113702 36 111 0.0 0.0 0.00 0.16 0.00 95 1019.7
20260906113512 35 111 0.0 0.0 0.00 0.16 0.00 94 1018.4
20260906113423 36 111 0.0 0.0 0.00 0.16 0.00 95 1019.6
20260906113018 35 111 0.0 0.0 0.00 0.16 0.00 94 1018.5
20260906112921 36 111 0.0 0.0 0.00 0.16 0.00 95 1019.9
20260906112512 35 111 0.0 0.0 0.00 0.16 0.00 95 1018.6
20260906112145 36 111 0.0 0.0 0.00 0.16 0.00 95 1020.0
20260906112016 35 111 0.0 0.0 0.00 0.16 0.00 94 1018.6
20260906111902 36 110 0.0 0.0 0.00 0.16 0.00 95 1019.9
20260906111530 35 110 0.0 0.0 0.00 0.16 0.00 94 1018.5
20260906111133 36 110 0.0 0.0 0.00 0.16 0.00 95 1019.9
20260906111008 35 110 0.0 0.0 0.00 0.16 0.00 94 1018.5
20260906110627 36 110 0.0 0.0 0.00 0.16 0.00 95 1019.9
20260906110514 35 110 0.0 0.0 0.00 0.16 0.00 94 1018.7
20260906110121 36 110 0.0 0.0 0.00 0.16 0.00 95 1020.0
20260906110032 35 110 0.0 0.0 0.00 0.16 0.00 94 1018.7
20260906105615 36 110 0.0 0.0 0.00 0.16 0.00 95 1020.0
20260906105507 35 110 0.0 0.0 0.00 0.16 0.00 94 1018.7
20260906105109 36 107 0.0 0.0 0.00 0.16 0.00 95 1019.9
20260906105008 35 107 0.0 0.0 0.00 0.16 0.00 94 1018.6
20260906104603 36 107 0.0 0.0 0.00 0.16 0.00 95 1019.9
20260906104520 36 107 0.0 0.0 0.00 0.16 0.00 94 1018.6
20260906104104 36 107 0.0 0.0 0.00 0.16 0.00 95 1020.0
20260906104014 36 107 0.0 0.0 0.00 0.16 0.00 94 1018.7
20260906103604 36 107 0.0 0.0 0.00 0.16 0.00 95 1020.0
20260906103508 36 107 0.0 0.0 0.00 0.16 0.00 94 1018.8
20260906103103 37 107 0.0 0.0 0.00 0.16 0.00 95 1020.1
20260906103027 36 107 0.0 0.0 0.00 0.16 0.00 95 1018.8
20260906102833 37 107 0.0 3.0 0.00 0.16 0.00 95 1020.1
20260906102514 36 107 0.0 3.0 0.00 0.16 0.00 95 1018.8
20260906102104 36 107 1.0 4.0 0.00 0.16 0.00 95 1020.1
20260906102013 36 107 0.0 4.0 0.00 0.16 0.00 95 1018.9
20260906101601 36 111 1.0 4.0 0.00 0.16 0.00 95 1020.1
20260906101524 35 111 2.0 4.0 0.00 0.16 0.00 94 1018.8
20260906101322 36 115 0.0 2.0 0.00 0.16 0.00 94 1020.1
20260906101016 35 115 0.0 2.0 0.00 0.16 0.00 94 1018.9
20260906100602 36 115 0.0 1.0 0.00 0.16 0.00 94 1020.1
20260906100508 35 115 0.0 1.0 0.00 0.16 0.00 94 1019.0
20260906100059 36 115 0.0 0.0 0.00 0.16 0.00 94 1020.3
20260906100007 35 115 0.0 0.0 0.00 0.16 0.00 94 1019.1
20260906095821 36 115 0.0 1.0 0.00 0.16 0.00 95 1020.4
20260906095504 36 115 0.0 1.0 0.00 0.16 0.00 94 1019.1
20260906095055 36 115 0.0 1.0 0.00 0.16 0.00 95 1020.4
20260906095004 36 115 0.0 2.0 0.00 0.16 0.00 94 1019.1
20260906094553 36 115 0.0 2.0 0.00 0.16 0.00 95 1020.4
20260906094514 35 115 0.0 2.0 0.00 0.16 0.00 94 1019.1
20260906094053 36 115 0.0 2.0 0.00 0.16 0.00 94 1020.4
20260906094008 35 115 0.0 2.0 0.00 0.16 0.00 94 1019.1
20260906093817 36 115 0.0 2.0 0.00 0.16 0.00 94 1020.4
20260906093504 35 115 0.0 2.0 0.00 0.16 0.00 94 1019.1
20260906093053 36 115 0.0 0.0 0.00 0.16 0.00 94 1020.4
20260906093030 35 115 0.0 0.0 0.00 0.16 0.00 94 1019.1
20260906092554 36 115 0.0 0.0 0.00 0.16 0.00 94 1020.4
20260906092509 35 115 0.0 0.0 0.00 0.16 0.00 94 1019.1
20260906092310 36 115 0.0 0.0 0.00 0.16 0.00 94 1020.4
20260906092004 35 115 0.0 0.0 0.00 0.16 0.00 94 1019.1
20260906091553 36 115 0.0 0.0 0.00 0.16 0.00 94 1020.4
20260906091510 35 115 0.0 0.0 0.00 0.16 0.00 94 1019.1
20260906091046 36 115 0.0 0.0 0.00 0.16 0.00 94 1020.5
20260906091004 35 115 0.0 0.0 0.00 0.16 0.00 93 1019.1
20260906090541 36 115 0.0 0.0 0.00 0.16 0.00 94 1020.4
20260906090504 35 115 0.0 0.0 0.00 0.16 0.00 93 1019.0
20260906090034 36 115 0.0 0.0 0.00 0.16 0.00 94 1020.4
20260906090012 35 115 0.0 0.0 0.00 0.16 0.00 93 1019.0
20260906085529 36 115 0.0 0.0 0.00 0.16 0.00 94 1020.5
20260906085503 35 115 0.0 0.0 0.00 0.16 0.00 93 1019.1
20260906085023 36 115 0.0 0.0 0.00 0.16 0.00 94 1020.5
20260906085001 36 115 0.0 0.0 0.00 0.16 0.00 93 1019.3
20260906084517 36 115 0.0 0.0 0.00 0.16 0.00 93 1019.2
20260906084011 36 115 0.0 0.0 0.00 0.16 0.00 94 1020.6
20260906084003 36 115 0.0 0.0 0.00 0.16 0.00 93 1019.2
20260906083506 36 115 0.0 0.0 0.00 0.16 0.00 93 1019.4
20260906083030 36 115 0.0 0.0 0.00 0.16 0.00 93 1019.3
20260906083002 36 115 0.0 0.0 0.00 0.16 0.00 93 1020.7
20260906082503 36 115 0.0 0.0 0.00 0.16 0.00 92 1019.3
20260906082453 36 115 0.0 0.0 0.00 0.16 0.00 93 1020.7
20260906082008 36 115 0.0 0.0 0.00 0.16 0.00 92 1019.4
20260906081947 36 115 0.0 0.0 0.00 0.16 0.00 93 1020.8
20260906081523 36 115 0.0 0.0 0.00 0.16 0.00 93 1019.4
20260906081441 36 115 0.0 0.0 0.00 0.16 0.00 93 1020.8
20260906081011 36 115 0.0 0.0 0.00 0.16 0.00 92 1019.5
20260906080935 36 115 0.0 0.0 0.00 0.16 0.00 93 1020.8
20260906080504 36 115 0.0 0.0 0.00 0.16 0.00 92 1019.5
20260906080429 37 115 0.0 0.0 0.00 0.16 0.00 93 1020.8
20260906080018 36 115 0.0 0.0 0.00 0.16 0.00 92 1019.6
20260906075923 37 115 0.0 0.0 0.00 0.16 0.00 93 1020.9
20260906075511 36 115 0.0 0.0 0.00 0.16 0.00 92 1019.6
20260906075417 37 115 0.0 0.0 0.00 0.16 0.00 93 1020.9
20260906075004 36 115 0.0 0.0 0.00 0.16 0.00 92 1019.7
20260906074912 37 115 0.0 0.0 0.00 0.16 0.00 92 1020.9
20260906074623 37 115 0.0 0.0 0.00 0.16 0.00 92 1021.1
20260906074523 36 115 0.0 0.0 0.00 0.16 0.00 92 1019.7
20260906074004 37 115 0.0 0.0 0.00 0.16 0.00 92 1019.7
20260906073906 37 115 0.0 0.0 0.00 0.16 0.00 92 1021.1
20260906073504 37 115 0.0 0.0 0.00 0.16 0.00 92 1019.8
20260906073405 37 115 0.0 0.0 0.00 0.16 0.00 92 1021.1
20260906073006 37 115 0.0 0.0 0.00 0.16 0.00 92 1019.8
20260906072906 37 115 0.0 0.0 0.00 0.16 0.00 92 1021.1
20260906072507 37 115 0.0 0.0 0.00 0.16 0.00 92 1019.8
20260906072405 37 115 0.0 0.0 0.00 0.16 0.00 92 1021.1
20260906072008 37 115 0.0 0.0 0.00 0.16 0.00 91 1019.8
20260906071904 37 115 0.0 0.0 0.00 0.16 0.00 92 1021.1
20260906071520 37 115 0.0 0.0 0.00 0.16 0.00 92 1019.8
20260906071405 38 115 0.0 0.0 0.00 0.16 0.00 92 1021.1
20260906071006 37 115 0.0 0.0 0.00 0.16 0.00 91 1019.7
20260906070905 38 115 0.0 0.0 0.00 0.16 0.00 92 1021.1
20260906070508 37 115 0.0 0.0 0.00 0.16 0.00 91 1019.8
20260906070406 38 115 0.0 0.0 0.00 0.16 0.00 91 1021.2
20260906070023 37 115 0.0 0.0 0.00 0.16 0.00 91 1019.9
20260906065904 38 115 0.0 0.0 0.00 0.16 0.16 91 1021.3
20260906065622 38 115 0.0 0.0 0.00 0.16 0.16 91 1021.2
20260906065504 38 115 0.0 0.0 0.00 0.16 0.16 91 1019.9
20260906065011 38 115 0.0 0.0 0.00 0.16 0.16 91 1019.8
20260906064904 38 115 0.0 0.0 0.00 0.16 0.16 91 1021.3
20260906064526 38 115 0.0 0.0 0.00 0.16 0.16 91 1019.9
20260906064403 38 115 0.0 0.0 0.00 0.16 0.16 91 1021.2
20260906064017 38 115 0.0 0.0 0.00 0.16 0.16 90 1019.9
20260906063904 38 115 0.0 0.0 0.00 0.16 0.16 91 1021.3
20260906063507 38 115 0.0 0.0 0.00 0.16 0.16 90 1019.9
20260906063359 39 115 0.0 0.0 0.00 0.16 0.16 91 1021.3
20260906063018 39 115 0.0 0.0 0.00 0.16 0.16 90 1019.9
20260906062900 39 115 0.0 0.0 0.00 0.16 0.16 91 1021.3
20260906062504 39 115 0.0 0.0 0.00 0.16 0.16 91 1019.9
20260906062400 39 114 0.0 0.0 0.00 0.16 0.16 91 1021.2
20260906062004 39 115 0.0 0.0 0.00 0.16 0.16 91 1019.9
20260906061858 40 115 0.0 0.0 0.00 0.16 0.16 91 1021.2
20260906061520 39 115 0.0 0.0 0.00 0.16 0.16 91 1019.9
20260906061358 40 115 0.0 0.0 0.00 0.16 0.16 91 1021.2
20260906061008 39 115 0.0 0.0 0.00 0.16 0.16 91 1019.9
20260906060855 40 115 0.0 0.0 0.00 0.16 0.16 91 1021.2
20260906060509 40 115 0.0 0.0 0.00 0.16 0.16 91 1019.9
20260906060354 40 115 0.0 0.0 0.00 0.16 0.16 91 1021.2
20260906060011 40 115 0.0 0.0 0.00 0.16 0.16 91 1019.9
20260906055854 40 114 0.0 0.0 0.00 0.16 0.16 91 1021.2
20260906055509 40 115 0.0 0.0 0.00 0.16 0.16 90 1020.0
20260906055354 40 114 0.0 0.0 0.00 0.16 0.16 91 1021.4
20260906055009 40 114 0.0 0.0 0.00 0.16 0.16 90 1020.0
20260906054851 40 114 0.0 0.0 0.00 0.16 0.16 91 1021.4
20260906054527 40 115 0.0 0.0 0.00 0.16 0.16 90 1020.0
20260906054350 41 115 0.0 0.0 0.00 0.16 0.16 90 1021.4
20260906054116 41 115 0.0 0.0 0.00 0.16 0.16 91 1021.4
20260906054008 41 115 0.0 0.0 0.00 0.16 0.16 90 1020.1
20260906053512 41 114 0.0 0.0 0.00 0.16 0.16 90 1020.1
20260906053350 41 115 0.0 0.0 0.00 0.16 0.16 91 1021.4
20260906053030 41 114 0.0 0.0 0.00 0.16 0.16 90 1020.1
20260906052849 42 115 0.0 0.0 0.00 0.16 0.16 91 1021.3
20260906052514 42 114 0.0 0.0 0.01 0.16 0.16 91 1020.2
20260906052343 42 115 0.0 0.0 0.01 0.16 0.16 92 1021.4
20260906052008 42 115 0.0 2.0 0.01 0.16 0.16 92 1020.1
20260906051837 42 114 0.0 2.0 0.01 0.16 0.16 92 1021.3
20260906051533 42 115 0.0 2.0 0.01 0.16 0.16 91 1020.1
20260906051331 42 114 0.0 2.0 0.01 0.16 0.16 92 1021.4
20260906051016 42 115 0.0 1.0 0.01 0.16 0.16 91 1020.2
20260906050825 43 115 0.0 2.0 0.01 0.16 0.16 91 1021.4
20260906050508 42 115 0.0 1.0 0.01 0.16 0.16 90 1020.1
20260906050318 43 115 0.0 2.0 0.01 0.16 0.16 91 1021.4
20260906050041 43 115 0.0 2.0 0.01 0.16 0.16 90 1021.5
20260906050028 42 115 0.0 2.0 0.01 0.16 0.16 90 1020.2
20260906045506 43 115 0.0 2.0 0.02 0.16 0.16 90 1020.4
20260906045307 43 114 0.0 2.0 0.02 0.16 0.16 91 1021.6
20260906045008 43 114 0.0 2.0 0.02 0.16 0.16 90 1020.4
20260906044800 44 115 0.0 0.0 0.02 0.16 0.16 91 1021.6
20260906044527 44 115 0.0 1.0 0.02 0.16 0.16 91 1021.6
20260906044516 43 114 0.0 0.0 0.02 0.16 0.16 91 1020.4
20260906044015 43 114 0.0 2.0 0.02 0.16 0.16 91 1020.4
20260906043510 44 114 0.0 2.0 0.02 0.16 0.16 92 1020.5
20260906043030 44 114 0.0 5.0 0.02 0.16 0.16 92 1020.6
20260906043004 44 114 2.0 5.0 0.02 0.16 0.16 92 1022.0
20260906042511 44 114 0.0 6.0 0.01 0.15 0.15 92 1020.6
20260906042231 44 117 2.0 6.0 0.01 0.15 0.15 92 1022.1
20260906042014 44 109 2.0 8.0 0.01 0.15 0.15 92 1020.7
20260906041725 44 107 2.0 8.0 0.01 0.15 0.15 92 1022.3
20260906041544 44 99 2.0 8.0 0.01 0.15 0.15 92 1020.7
20260906041219 44 109 3.0 8.0 0.01 0.15 0.15 92 1022.3
20260906041007 44 105 3.0 8.0 0.01 0.15 0.15 91 1020.7
20260906040712 44 113 4.0 8.0 0.01 0.15 0.15 92 1022.1
20260906040513 44 112 5.0 8.0 0.01 0.15 0.15 92 1020.8
20260906040207 44 118 4.0 8.0 0.01 0.15 0.15 92 1022.1
20260906040034 44 119 3.0 9.0 0.01 0.15 0.15 91 1020.9
20260906035701 44 115 4.0 9.0 0.00 0.14 0.14 92 1022.4
20260906035522 44 114 3.0 9.0 0.00 0.14 0.14 92 1021.1
20260906035155 44 113 3.0 9.0 0.01 0.14 0.14 92 1022.5
20260906035008 44 108 3.0 6.0 0.01 0.14 0.14 91 1021.1
20260906034649 44 116 2.0 6.0 0.02 0.14 0.14 91 1022.5
20260906034511 44 111 2.0 4.0 0.02 0.14 0.14 91 1021.1
20260906034405 44 111 0.0 4.0 0.02 0.14 0.14 91 1022.5
20260906034006 44 105 0.0 3.0 0.03 0.14 0.14 91 1021.1
20260906033637 44 105 1.0 6.0 0.03 0.14 0.14 92 1022.5
20260906033510 44 105 0.0 6.0 0.04 0.14 0.14 91 1021.1
20260906033131 45 105 2.0 7.0 0.04 0.14 0.14 92 1022.7
20260906033004 44 100 1.0 7.0 0.04 0.14 0.14 92 1021.1
20260906032625 45 105 2.0 7.0 0.04 0.14 0.14 93 1022.7
20260906032502 44 103 2.0 9.0 0.04 0.14 0.14 92 1021.1
20260906032119 45 170 4.0 9.0 0.05 0.14 0.14 92 1022.5
20260906032006 44 112 1.0 9.0 0.05 0.14 0.14 92 1021.1
20260906031613 45 103 5.0 9.0 0.06 0.14 0.14 92 1022.4
20260906031504 44 108 5.0 9.0 0.06 0.14 0.14 91 1021.1
20260906031108 45 120 2.0 9.0 0.06 0.14 0.14 91 1022.4
20260906031002 44 111 6.0 8.0 0.06 0.14 0.14 91 1021.0
20260906030601 44 113 0.0 6.0 0.07 0.14 0.14 91 1022.4
20260906030502 44 105 0.0 0.0 0.07 0.14 0.14 90 1021.0
20260906030055 45 105 0.0 0.0 0.07 0.14 0.14 91 1022.5
20260906030009 44 105 0.0 0.0 0.07 0.14 0.14 90 1021.0
20260906025549 45 105 0.0 0.0 0.07 0.14 0.14 90 1022.5
20260906025503 44 105 0.0 0.0 0.07 0.14 0.14 89 1021.0
20260906025043 45 105 0.0 0.0 0.06 0.13 0.13 90 1022.4
20260906025003 44 105 0.0 0.0 0.06 0.13 0.13 89 1021.1
20260906024802 45 105 0.0 0.0 0.05 0.12 0.12 88 1022.3
20260906024512 45 105 0.0 4.0 0.05 0.12 0.12 88 1021.1
20260906024031 45 105 1.0 6.0 0.04 0.11 0.11 89 1022.3
20260906024008 45 105 0.0 6.0 0.04 0.11 0.11 88 1021.1
20260906023525 46 103 1.0 6.0 0.03 0.10 0.10 88 1022.4
20260906023503 45 106 1.0 6.0 0.03 0.10 0.10 88 1021.1
20260906023019 46 139 1.0 6.0 0.03 0.10 0.10 87 1022.4
20260906023007 45 132 0.0 6.0 0.03 0.10 0.10 87 1021.1
20260906022513 46 110 1.0 11.0 0.03 0.10 0.10 87 1022.4
20260906022510 46 110 1.0 6.0 0.03 0.10 0.10 87 1021.1
20260906022012 46 134 0.0 5.0 0.02 0.09 0.09 85 1021.1
20260906022007 46 134 1.0 11.0 0.01 0.08 0.09 85 1022.4
20260906021732 47 230 2.0 14.0 0.01 0.08 0.08 84 1022.4
20260906021509 46 230 0.0 14.0 0.01 0.08 0.08 83 1021.1
20260906021005 47 99 2.0 14.0 0.01 0.08 0.08 81 1021.0
20260906020955 47 93 2.0 14.0 0.01 0.08 0.08 82 1022.3
20260906020504 48 129 0.0 8.0 0.00 0.07 0.07 82 1020.8
20260906020449 48 135 3.0 8.0 0.00 0.07 0.07 82 1022.1
20260906020004 48 141 1.0 10.0 0.00 0.07 0.07 79 1020.6
20260906015943 48 141 4.0 10.0 0.00 0.07 0.07 80 1021.9
20260906015501 48 114 6.0 10.0 0.00 0.07 0.07 81 1020.3
20260906015437 49 161 1.0 10.0 0.00 0.07 0.07 81 1021.7
20260906015004 48 111 0.0 0.0 0.00 0.07 0.07 83 1020.3
20260906014931 49 111 0.0 0.0 0.00 0.07 0.07 84 1021.6
20260906014525 49 111 0.0 6.0 0.00 0.07 0.07 82 1020.0
20260906014425 49 111 1.0 6.0 0.00 0.07 0.07 82 1021.4
20260906014002 49 111 0.0 6.0 0.00 0.07 0.07 79 1019.9
20260906013919 49 111 1.0 6.0 0.00 0.07 0.07 79 1021.3
20260906013506 49 108 1.0 6.0 0.00 0.07 0.07 82 1019.8
20260906013413 49 107 0.0 2.0 0.00 0.07 0.07 83 1021.2
20260906013029 49 110 0.0 1.0 0.00 0.07 0.07 81 1019.7
20260906012907 50 110 0.0 1.0 0.00 0.07 0.07 81 1021.1
20260906012506 49 110 0.0 1.0 0.00 0.07 0.07 78 1019.6
20260906012401 50 110 0.0 1.0 0.00 0.07 0.07 78 1021.1
20260906012004 50 110 0.0 0.0 0.00 0.07 0.07 78 1019.6
20260906011855 50 110 0.0 0.0 0.00 0.07 0.07 78 1021.1
20260906011517 50 110 0.0 6.0 0.00 0.07 0.07 79 1019.6
20260906011349 51 110 1.0 6.0 0.00 0.07 0.07 78 1021.1
20260906011012 51 110 0.0 6.0 0.00 0.07 0.07 77 1019.6
20260906010843 51 110 2.0 7.0 0.00 0.07 0.07 74 1021.1
20260906010558 51 116 2.0 7.0 0.00 0.07 0.07 73 1021.1
20260906010503 51 111 1.0 7.0 0.00 0.07 0.07 73 1019.6
20260906010034 51 96 3.0 7.0 0.00 0.07 0.07 71 1019.6
20260906005831 51 108 2.0 7.0 0.00 0.07 0.07 72 1021.1
20260906005509 51 98 1.0 9.0 0.00 0.07 0.07 74 1019.6
20260906005331 52 86 2.0 9.0 0.00 0.07 0.07 74 1021.1
20260906005007 51 39 2.0 9.0 0.00 0.07 0.07 74 1019.6
20260906004831 52 107 1.0 9.0 0.00 0.07 0.07 75 1020.9
20260906004507 52 94 1.0 7.0 0.00 0.07 0.07 85 1019.6
20260906004331 52 105 0.0 1.0 0.00 0.07 0.07 85 1020.9
20260906004003 52 105 0.0 1.0 0.00 0.07 0.07 83 1019.5
20260906003829 52 105 0.0 0.0 0.00 0.07 0.07 84 1020.8
20260906003503 52 105 0.0 0.0 0.00 0.07 0.07 84 1019.5
20260906003329 52 105 0.0 1.0 0.00 0.07 0.07 85 1020.8
20260906003048 53 105 1.0 3.0 0.00 0.07 0.07 83 1020.7
20260906003008 52 104 0.0 3.0 0.00 0.07 0.07 83 1019.5
20260906002505 52 105 0.0 3.0 0.00 0.07 0.07 79 1019.4
20260906002327 52 105 1.0 3.0 0.00 0.07 0.07 78 1020.7
20260906002009 52 105 2.0 3.0 0.00 0.07 0.07 77 1019.4
20260906001826 52 105 0.0 3.0 0.00 0.07 0.07 80 1020.7
20260906001527 51 105 0.0 0.0 0.00 0.07 0.07 77 1019.3
20260906001327 52 105 0.0 0.0 0.00 0.07 0.07 77 1020.7
20260906001003 51 105 0.0 1.0 0.00 0.07 0.07 77 1019.3
20260906000824 52 105 0.0 1.0 0.00 0.07 0.07 80 1020.7
20260906000543 52 105 0.0 1.0 0.00 0.07 0.07 83 1020.7
20260906000510 51 105 0.0 1.0 0.00 0.07 0.07 82 1019.3
20260906000030 51 104 0.0 2.0 0.00 0.07 0.07 85 1019.5
20260905235825 51 105 1.0 3.0 0.00 0.07 0.07 85 1020.7
20260905235503 51 104 0.0 4.0 0.00 0.07 0.07 85 1019.5
20260905235325 51 104 2.0 4.0 0.00 0.07 0.07 86 1020.9
20260905235011 50 103 1.0 4.0 0.00 0.07 0.07 84 1019.5
20260905234823 51 103 2.0 4.0 0.01 0.07 0.07 85 1020.8
20260905234523 50 103 2.0 4.0 0.01 0.07 0.07 86 1019.5
20260905234323 50 105 2.0 3.0 0.01 0.07 0.07 86 1020.8
20260905234013 50 105 1.0 4.0 0.01 0.07 0.07 85 1019.4
20260905233823 50 105 2.0 4.0 0.01 0.07 0.07 86 1020.7
20260905233507 49 105 1.0 4.0 0.01 0.07 0.07 86 1019.3
20260905233323 50 105 1.0 4.0 0.01 0.07 0.07 87 1020.7
20260905233007 49 102 0.0 2.0 0.01 0.07 0.07 87 1019.4
20260905232817 49 102 0.0 2.0 0.01 0.07 0.07 89 1020.6
20260905232506 48 102 0.0 2.0 0.02 0.07 0.07 91 1019.3
20260905232311 49 102 0.0 2.0 0.02 0.07 0.07 92 1020.7
20260905232006 48 102 0.0 3.0 0.02 0.07 0.07 91 1019.3
20260905231809 48 102 0.0 3.0 0.02 0.07 0.07 92 1020.6
20260905231523 48 102 0.0 3.0 0.02 0.07 0.07 91 1019.3
20260905231309 48 102 1.0 3.0 0.03 0.07 0.07 92 1020.7
20260905231011 47 102 0.0 4.0 0.03 0.07 0.07 91 1019.4
20260905230809 48 102 1.0 4.0 0.03 0.07 0.07 91 1020.7
20260905230507 47 102 1.0 4.0 0.04 0.07 0.07 91 1019.4
20260905230308 47 102 1.0 4.0 0.06 0.07 0.07 91 1020.8
20260905230012 47 101 0.0 4.0 0.07 0.07 0.07 90 1019.5
20260905225809 47 101 0.0 4.0 0.07 0.07 0.07 90 1020.7
20260905225509 47 111 0.0 1.0 0.07 0.07 0.07 89 1019.4
20260905225309 47 111 0.0 1.0 0.07 0.07 0.07 89 1020.7
20260905225013 47 111 0.0 3.0 0.07 0.07 0.07 89 1019.5
20260905224809 47 111 0.0 3.0 0.06 0.06 0.07 89 1020.8
20260905224540 47 111 0.0 3.0 0.06 0.06 0.06 88 1019.6
20260905224309 47 111 2.0 6.0 0.06 0.06 0.06 87 1021.1
20260905224040 47 127 3.0 7.0 0.06 0.06 0.06 88 1021.1
20260905224009 47 115 0.0 7.0 0.06 0.06 0.06 88 1019.7
20260905223513 47 123 3.0 7.0 0.06 0.06 0.06 87 1019.8
20260905223309 47 107 4.0 8.0 0.06 0.06 0.06 87 1021.2
20260905223038 47 114 3.0 10.0 0.06 0.06 0.06 86 1019.9
20260905222809 48 107 3.0 10.0 0.06 0.06 0.06 87 1021.2
20260905222506 48 107 2.0 10.0 0.05 0.05 0.05 86 1019.9
20260905222309 48 84 2.0 10.0 0.05 0.05 0.05 85 1021.4
20260905222009 48 100 0.0 4.0 0.05 0.05 0.05 83 1019.9
20260905221808 49 93 0.0 1.0 0.05 0.05 0.05 83 1021.3
20260905221529 49 93 0.0 2.0 0.05 0.05 0.05 81 1020.0
20260905221309 49 93 0.0 2.0 0.04 0.04 0.04 80 1021.5
20260905221003 49 93 0.0 10.0 0.04 0.04 0.04 78 1020.1
20260905220808 50 93 4.0 12.0 0.04 0.04 0.04 79 1021.5
20260905220507 50 93 0.0 19.0 0.03 0.03 0.03 78 1020.3
20260905220309 50 88 9.0 23.0 0.01 0.01 0.02 78 1021.7
20260905220019 50 143 8.0 23.0 0.00 0.00 0.00 75 1020.3
20260905215806 51 107 5.0 23.0 0.00 0.00 0.00 74 1021.4
20260905215510 51 101 9.0 23.0 0.00 0.00 0.00 68 1020.1
20260905215307 52 109 1.0 7.0 0.00 0.00 0.00 67 1021.4
20260905215012 51 281 0.0 2.0 0.00 0.00 0.00 64 1020.0
20260905214807 52 281 1.0 2.0 0.00 0.00 0.00 62 1021.3
20260905214519 51 294 0.0 6.0 0.00 0.00 0.00 62 1019.9
20260905214307 52 294 1.0 6.0 0.00 0.00 0.00 61 1021.2
20260905214011 51 295 0.0 6.0 0.00 0.00 0.00 63 1019.8
20260905213515 51 281 1.0 3.0 0.00 0.00 0.00 65 1019.8
20260905213307 51 149 0.0 0.0 0.00 0.00 0.00 70 1021.1
20260905213020 51 149 0.0 0.0 0.00 0.00 0.00 69 1019.9
20260905212807 51 157 0.0 0.0 0.00 0.00 0.00 71 1021.2
20260905212512 50 236 0.0 0.0 0.00 0.00 0.00 70 1019.8
20260905212307 50 236 0.0 0.0 0.00 0.00 0.00 69 1021.2
20260905212017 50 236 0.0 0.0 0.00 0.00 0.00 68 1019.8
20260905211806 50 236 0.0 0.0 0.00 0.00 0.00 68 1021.1
20260905211539 50 236 0.0 0.0 0.00 0.00 0.00 67 1019.7
20260905211307 50 236 0.0 0.0 0.00 0.00 0.00 68 1021.1
20260905211007 50 236 0.0 0.0 0.00 0.00 0.00 67 1019.8
20260905210806 50 236 0.0 0.0 0.00 0.00 0.00 68 1021.2
20260905210514 50 236 0.0 0.0 0.00 0.00 0.00 68 1019.9
20260905210305 50 236 0.0 0.0 0.00 0.00 0.00 68 1021.2
20260905210035 50 236 0.0 0.0 0.00 0.00 0.00 67 1019.8
20260905205757 50 236 0.0 0.0 0.00 0.00 0.00 67 1021.1
20260905205507 50 236 0.0 0.0 0.00 0.00 0.00 67 1019.7
20260905205252 50 236 0.0 0.0 0.00 0.00 0.00 66 1021.1
20260905205008 50 236 0.0 0.0 0.00 0.00 0.00 66 1019.7
20260905204747 51 236 0.0 2.0 0.00 0.00 0.00 68 1021.1
20260905204524 50 236 0.0 2.0 0.00 0.00 0.00 68 1019.8
20260905204239 51 236 1.0 4.0 0.00 0.00 0.00 68 1021.1
20260905204008 50 236 0.0 4.0 0.00 0.00 0.00 67 1019.8
20260905203956 51 236 1.0 4.0 0.00 0.00 0.00 67 1021.1
20260905203508 50 236 1.0 4.0 0.00 0.00 0.00 66 1019.7
20260905203047 51 157 0.0 2.0 0.00 0.00 0.00 66 1019.7
20260905202722 51 124 0.0 0.0 0.00 0.00 0.00 65 1021.1
20260905202516 51 124 0.0 0.0 0.00 0.00 0.00 70 1019.7
20260905202216 52 115 0.0 0.0 0.00 0.00 0.00 69 1021.1
20260905202012 51 115 0.0 0.0 0.00 0.00 0.00 68 1019.7
20260905201710 52 115 0.0 1.0 0.00 0.00 0.00 67 1021.1
20260905201548 51 115 0.0 1.0 0.00 0.00 0.00 66 1019.7
20260905201204 52 115 1.0 4.0 0.00 0.00 0.00 69 1021.1
20260905201016 51 115 0.0 10.0 0.00 0.00 0.00 70 1019.8
20260905200700 52 115 4.0 14.0 0.00 0.00 0.00 65 1021.1
20260905200516 52 115 0.0 14.0 0.00 0.00 0.00 66 1019.8
20260905200200 52 113 6.0 14.0 0.00 0.00 0.00 64 1021.2
20260905200019 52 106 8.0 14.0 0.00 0.00 0.00 62 1019.9
20260905195701 53 111 6.0 13.0 0.00 0.00 0.00 59 1021.2
20260905195512 52 82 3.0 13.0 0.00 0.00 0.00 62 1019.9
20260905195200 53 106 8.0 12.0 0.00 0.00 0.00 64 1021.3
20260905195016 52 110 7.0 12.0 0.00 0.00 0.00 62 1019.9
20260905194931 53 105 6.0 12.0 0.00 0.00 0.00 64 1021.2
20260905194536 52 86 7.0 12.0 0.00 0.00 0.00 64 1019.8
20260905194201 52 101 3.0 12.0 0.00 0.00 0.00 67 1021.3
20260905194013 51 124 5.0 12.0 0.00 0.00 0.00 71 1019.9
20260905193700 51 113 1.0 4.0 0.00 0.00 0.00 71 1021.3
20260905193512 51 263 0.0 3.0 0.00 0.00 0.00 72 1019.8
20260905193426 51 274 1.0 3.0 0.00 0.00 0.00 72 1021.2
20260905193023 51 282 0.0 4.0 0.00 0.00 0.00 71 1019.8
20260905192701 51 282 1.0 4.0 0.00 0.00 0.00 72 1021.1
20260905192516 50 281 1.0 4.0 0.00 0.00 0.00 71 1019.8
20260905192201 51 281 1.0 4.0 0.00 0.00 0.00 71 1021.2
20260905192012 50 286 0.0 2.0 0.00 0.00 0.00 71 1019.8
20260905191658 51 258 1.0 2.0 0.00 0.00 0.00 71 1021.2
20260905191529 50 258 1.0 3.0 0.00 0.00 0.00 72 1019.8